Find Flock 4be-24

NORAD ID: 60505 Int'l Des: 2024-149 Owner: PLAN Country: US Constellation: planet operational
LEOCIRCULARRETROGRADESSO

現在のビュー

3D地球を読み込み中...

About Flock 4be-24

Flock 4be-24 (NORAD 60505) is a planet constellation satellite launched Aug 16, 2024 by PLAN of US. It operates in LEO, CIRCULAR, RETROGRADE, SSO orbit with a mass of 5.70 kg.

Flock 4be-24について

説明を読み込み中...

次回通過

Passes for default location (London). Set your location on the main map for personalized predictions.

高度履歴

Loading altitude history...

軌道要素

1 60505U 24149AP 26194.03542205 .00015728 00000-0 34611-3 0 9990
2 60505 97.3717 278.7781 0004850 176.3510 183.7775 15.44044848106357
Epoch: Jul 13, 2026 • Age: 26 hours

現在のステータス

高度 448.4 km
遠地点 / 近地点 N/A
速度 7.64 km/s
衛星直下点 -42.59°S, 120.63°E
打ち上げ日 Aug 16, 2024
運用期間 1.9 years
タイプ earth observation

技術仕様

分類 Payload
質量 5.70 kg
乾燥質量 5.70 kg
総質量 5.70 kg
長さ 0.30 m
直径 0.10 m
スパン 0.30 m
形状 Box+2 pan
製造者 PLAN
バスタイプ Cubesat 3U
フェーズステータス In Orbit
所有者/国 PLAN/US

Most Searched